Regional Weather Roundup
Issued by NWS

Home | Current Version | Previous Version | Graphics & Text | Print | Product List | Glossary On
Versions: 1 2 3 4 5 6 7 8 9 10 11 12 13 14 15 16 17 18 19 20 21 22 23 24 25 26 27 28 29 30 31 32 33 34 35 36 37 38 39 40 41 42 43 44 45 46 47 48 49 50
000
ASUS45 KCYS 291910
RWRWY

WYOMING REGIONAL WEATHER ROUNDUP
NATIONAL WEATHER SERVICE CHEYENNE WY
100 PM MDT FRI MAY 29 2015

NOTE:  "FAIR" INDICATES FEW OR NO CLOUDS BELOW 12,000 FEET
WITH NO SIGNIFICANT WEATHER AND/OR OBSTRUCTIONS TO VISIBILITY.

WYZ001-292000-
YELLOWSTONE NATIONAL PARK

CITY           SKY/WX    TMP DP  RH WIND       PRES   REMARKS
LK YELLOWSTONE   N/A     52  36  54 VRB3      30.34F
W YELLOWSTONE  NOT AVBL

$$
WYZ002>013-054>058-071-098>099-292000-
NORTHERN WYOMING

CITY           SKY/WX    TMP DP  RH WIND       PRES   REMARKS
JACKSON        SUNNY     57  43  58 CALM      30.29F
CODY           FAIR      55  48  76 E6        30.28F
GREYBULL       FAIR      64  44  48 MISG      30.24F
WORLAND        FAIR      62  46  55 NW7       30.26F
SHERIDAN       CLOUDY    49  44  83 CALM      30.32S
BUFFALO        CLOUDY    47  45  93 N16G24    30.31F
GILLETTE       FAIR      54  40  59 N14G21    30.29S
HULETT         FAIR      48  39  71 N5        30.30S
NEWCASTLE      FAIR      52  43  71 NW23G29   30.24F

$$
WYZ014>020-022>026-101>103-292000-
CENTRAL WYOMING

CITY           SKY/WX    TMP DP  RH WIND       PRES   REMARKS
BIG PINEY      FAIR      57  38  48 W6        30.33S
PINEDALE       FAIR      54  36  50 S7        30.33S
DUBOIS         FAIR      55  39  54 SE13G21   30.30S
LANDER         PTSUNNY   58  47  66 E10       30.28F
RIVERTON       CLOUDY    54  46  74 E13       30.31S
CASPER         CLOUDY    49  44  83 N10       30.32R
DOUGLAS        LGT RAIN  51  48  89 NW13      30.29S

$$
WYZ021-027>030-104>119-292000-
SOUTHERN WYOMING

CITY           SKY/WX    TMP DP  RH WIND       PRES   REMARKS
EVANSTON       PTSUNNY   57  39  51 VRB3      30.31F
KEMMERER       FAIR      57  36  44 SE3       30.34F
FORT BRIDGER   PTCLDY    61  45  55 E8        30.35S
ROCK SPRINGS   PTSUNNY   57  38  48 VRB3      30.32S
DIXON          RAIN      50  42  73 E3        30.35R VSB 1
RAWLINS        CLOUDY    51  42  71 NE8       30.33R
SARATOGA       CLOUDY    52  41  66 N10       30.33S
LARAMIE        FAIR      51  40  65 N17       30.29R
CHEYENNE       LGT RAIN  54  42  64 N22G30    30.24R
TORRINGTON     CLOUDY    53  49  86 N12       30.22R
PINE BLUFFS    MOCLDY    55  43  62 N25       30.22S

$$


USA.gov is the U.S. government's official web portal to all federal, state and local government web resources and services.